SL-4 DEB (44439 NORAD) Tracking and Keplerian Element Data

This shows tracking and keplerian element data for the satellite.

Feedback or suggestion? Click here.




ElementValue
Catalog44439
NameSL-4 DEB
Epoch Orbit3
Epoch Day201.93957084
Epoch Year2019
RAAN193.6022
Inclination51.5972
Eccentricity0.0023036
Argument of Perigee47.3554
Mean Anonmoly48.001
Mean Motion16.32998775
Decay Rate0.00694249
L11 44439U 19041C 19201.93957084 .00694249 12233-4 10000-3 0 9990
L22 44439 51.5972 193.6022 0023036 47.3554 48.0010 16.32998775 33

Live tracking and technical data element details for SL-4 DEB (NORAD 44439). SL-4 DEB can be tracked NOW for your location showing map with azimuth and elevation plus other details from your city location.

Track the satellite on the map from your city or location and see movement details for azimuth, elevation, latitude, longitude, range, height, and movement on the map or in text.







IsCatalogInMostPopularTable: catalog: 44439, numindb: 27
Update: records affected: 1



GetName: 44439 SL-4 DEB

Hit Count: updated at: Wed, 23 Oct 2019 00:04:11 GMT